FW3961 Weather Reports


time (UTC)temp
C
wind
direction
speed
KPH
gust
KPH
rain 1hr
cm
rain 24hr
cm
rain mn
cm
humidity
%
barometer
mb
20260505171535 14 215 0.0 3.2 0.00 0.00 0.00 82 1017.3
20260505171030 14 215 0.0 3.2 0.00 0.00 0.00 83 1017.3
20260505170523 13 216 0.0 3.2 0.00 0.00 0.00 84 1017.3
20260505170020 13 214 0.0 1.6 0.00 0.00 0.00 84 1017.2
20260505170013 13 214 0.0 1.6 0.00 0.00 0.00 84 1017.2
20260505165006 13 214 0.0 4.8 0.00 0.00 0.00 84 1017.4
20260505164501 13 214 0.0 4.8 0.00 0.00 0.00 84 1017.3
20260505163954 13 221 0.0 3.2 0.00 0.00 0.00 84 1017.2
20260505163448 13 221 0.0 3.2 0.00 0.00 0.00 85 1017.2
20260505163321 13 217 0.0 3.2 0.00 0.00 0.00 85 1017.2
20260505163212 13 221 0.0 3.2 0.00 0.00 0.00 85 1017.2
20260505161930 12 207 0.0 3.2 0.00 0.00 0.00 86 1017.1
20260505161428 12 208 0.0 4.8 0.00 0.00 0.00 86 1017.2
20260505160926 12 208 0.0 4.8 0.00 0.00 0.00 86 1017.1
20260505160424 12 207 0.0 3.2 0.00 0.00 0.00 86 1017.2
20260505152924 12 209 1.6 6.4 0.00 0.00 0.00 88 1017.1
20260505152427 12 185 0.0 4.8 0.00 0.00 0.00 89 1017.0
20260505152423 12 188 1.6 6.4 0.00 0.00 0.00 88 1017.1
20260505151418 12 178 0.0 0.0 0.00 0.00 0.00 89 1017.1
20260505150918 12 178 0.0 0.0 0.00 0.00 0.00 90 1017.0
20260505150419 12 177 0.0 0.0 0.00 0.00 0.00 90 1017.1
20260505140412 11 225 0.0 0.0 0.00 0.00 0.00 91 1016.6
20260505124823 11 225 0.0 1.6 0.00 0.00 0.00 90 1016.2
20260505124319 11 225 0.0 1.6 0.00 0.00 0.00 89 1016.3
20260505124313 11 225 0.0 1.6 0.00 0.00 0.00 89 1016.1
20260505123304 11 225 0.0 1.6 0.00 0.00 0.00 90 1016.1
20260505122759 11 225 0.0 1.6 0.00 0.00 0.00 89 1016.2
20260505122253 11 225 0.0 0.0 0.00 0.00 0.00 90 1016.2
20260505121747 11 225 0.0 1.6 0.00 0.00 0.00 90 1016.1
20260505121242 11 225 0.0 1.6 0.00 0.00 0.00 90 1016.1
20260505120734 11 225 0.0 1.6 0.00 0.00 0.00 90 1016.0
20260505120231 11 230 0.0 1.6 0.00 0.00 0.00 89 1016.1
20260505120225 11 230 0.0 1.6 0.00 0.00 0.00 89 1016.0
20260505115217 11 230 0.0 1.6 0.00 0.00 0.00 89 1016.0
20260505114712 11 230 0.0 1.6 0.00 0.00 0.00 89 1016.0
20260505114209 11 230 0.0 1.6 0.00 0.00 0.00 90 1016.1
20260505114203 11 230 0.0 1.6 0.00 0.00 0.00 90 1016.1
20260505113154 11 230 0.0 1.6 0.00 0.00 0.00 90 1016.0
20260505113149 11 228 0.0 1.6 0.00 0.00 0.00 89 1016.1
20260505112141 11 228 0.0 1.6 0.00 0.00 0.00 89 1016.0
20260505111634 11 228 0.0 1.6 0.00 0.00 0.00 89 1016.0
20260505111129 11 228 0.0 3.2 0.00 0.00 0.00 90 1016.0
20260505110625 11 228 0.0 3.2 0.00 0.00 0.00 90 1016.0
20260505110619 11 217 0.0 1.6 0.00 0.00 0.00 89 1015.9
20260505102029 11 186 0.0 3.2 0.00 0.00 0.00 90 1015.8
20260505101523 11 186 0.0 1.6 0.00 0.00 0.00 91 1015.7
20260505101017 11 163 0.0 1.6 0.00 0.00 0.00 91 1015.7
20260505100511 11 163 0.0 1.6 0.00 0.00 0.00 91 1015.7
20260505100006 11 163 0.0 0.0 0.00 0.00 0.00 91 1015.7
20260505095500 11 163 0.0 0.0 0.00 0.00 0.00 91 1015.8
20260505094954 11 162 0.0 3.2 0.00 0.00 0.00 91 1015.7
20260505094447 11 162 1.6 3.2 0.00 0.00 0.00 91 1015.7
20260505093941 11 162 0.0 3.2 0.00 0.00 0.00 91 1015.7
20260505093437 11 162 0.0 3.2 0.00 0.00 0.00 91 1015.7
20260505092938 11 162 0.0 6.4 0.00 0.00 0.00 90 1015.6
20260505092436 11 162 1.6 6.4 0.00 0.00 0.00 91 1015.6
20260505091935 11 163 1.6 4.8 0.00 0.00 0.00 91 1015.6
20260505091437 11 163 1.6 4.8 0.00 0.00 0.00 91 1015.6
20260505090936 11 172 1.6 3.2 0.00 0.00 0.00 91 1015.5
20260505090437 11 172 1.6 3.2 0.00 0.00 0.00 91 1015.5
20260505085936 11 172 1.6 3.2 0.00 0.00 0.00 91 1015.5
20260505085435 11 172 1.6 3.2 0.00 0.00 0.00 91 1015.5
20260505084936 11 234 0.0 1.6 0.00 0.00 0.00 91 1015.6
20260505084436 11 234 0.0 1.6 0.00 0.00 0.00 91 1015.6
20260505083941 11 234 0.0 1.6 0.00 0.00 0.00 91 1015.6
20260505083936 11 234 0.0 1.6 0.00 0.00 0.00 91 1015.6
20260505082936 11 234 0.0 1.6 0.00 0.00 0.00 91 1015.5
20260505082436 11 234 0.0 1.6 0.00 0.00 0.00 91 1015.4
20260505081934 11 234 0.0 1.6 0.00 0.00 0.00 91 1015.3
20260505081431 11 234 0.0 1.6 0.00 0.00 0.00 91 1015.3
20260505080932 11 234 0.0 3.2 0.00 0.00 0.00 91 1015.4
20260505080430 11 234 0.0 3.2 0.00 0.00 0.00 91 1015.2
20260505075933 11 243 0.0 3.2 0.00 0.00 0.00 91 1015.3
20260505075432 11 248 0.0 1.6 0.00 0.00 0.00 91 1015.3
20260505074933 11 248 0.0 4.8 0.00 0.00 0.00 91 1015.2
20260505074433 11 248 0.0 4.8 0.00 0.00 0.00 91 1015.2
20260505073930 11 144 0.0 1.6 0.00 0.00 0.00 91 1015.1
20260505073429 11 144 0.0 1.6 0.00 0.00 0.00 91 1015.2
20260505072931 11 144 0.0 3.2 0.00 0.00 0.00 91 1015.2
20260505072430 10 143 1.6 4.8 0.00 0.00 0.00 91 1015.1
20260505071929 10 155 1.6 4.8 0.00 0.00 0.00 91 1015.1
20260505071431 10 158 1.6 6.4 0.00 0.00 0.00 91 1015.0
20260505070929 10 158 1.6 6.4 0.00 0.00 0.00 90 1014.9
20260505070429 10 165 1.6 6.4 0.00 0.00 0.00 90 1014.9
20260505065926 10 173 1.6 3.2 0.00 0.00 0.00 90 1014.9
20260505065426 11 173 1.6 3.2 0.00 0.00 0.00 90 1014.8
20260505064933 11 173 0.0 3.2 0.00 0.00 0.00 89 1014.8
20260505064929 11 173 0.0 3.2 0.00 0.00 0.00 89 1014.8
20260505064807 11 173 1.6 3.2 0.00 0.00 0.00 89 1014.8
20260505063420 11 173 0.0 3.2 0.00 0.00 0.00 88 1014.7
20260505062917 11 173 1.6 4.8 0.00 0.00 0.00 88 1014.7
20260505062912 11 173 1.6 4.8 0.00 0.00 0.00 87 1014.7
20260505061903 11 180 0.0 3.2 0.00 0.00 0.00 86 1014.6
20260505061356 11 212 0.0 1.6 0.00 0.00 0.00 86 1014.7
20260505060854 11 212 0.0 0.0 0.00 0.00 0.00 85 1014.7
20260505060345 11 212 0.0 1.6 0.00 0.00 0.00 85 1014.7
20260505055840 12 212 0.0 1.6 0.00 0.00 0.00 85 1014.7
20260505055333 12 212 0.0 1.6 0.00 0.00 0.00 85 1014.7
20260505054827 12 212 0.0 0.0 0.00 0.00 0.00 84 1014.7
20260505054320 12 212 0.0 0.0 0.00 0.00 0.00 84 1014.8
20260505053813 12 212 0.0 0.0 0.00 0.00 0.00 84 1014.8
20260505053308 12 212 0.0 0.0 0.00 0.00 0.00 84 1014.8
20260505052801 12 212 0.0 1.6 0.00 0.00 0.00 84 1014.7
20260505052255 12 212 0.0 3.2 0.00 0.00 0.00 84 1014.7
20260505051749 12 212 0.0 3.2 0.00 0.00 0.00 83 1014.7
20260505051243 12 196 0.0 3.2 0.00 0.00 0.00 83 1014.7
20260505050736 12 188 0.0 1.6 0.00 0.00 0.00 83 1014.8
20260505050231 12 207 0.0 3.2 0.00 0.00 0.00 82 1014.6
20260505041638 13 201 1.6 4.8 0.00 0.00 0.00 81 1013.8
20260505041131 14 206 1.6 4.8 0.00 0.00 0.00 81 1013.6
20260505040626 14 207 0.0 4.8 0.00 0.00 0.00 80 1013.5
20260505040120 15 211 0.0 4.8 0.00 0.00 0.00 80 1013.5
20260505035615 15 221 0.0 3.2 0.00 0.00 0.00 79 1013.5
20260505035109 15 227 0.0 3.2 0.00 0.00 0.00 78 1013.5
20260505035104 15 203 1.6 3.2 0.00 0.00 0.00 78 1013.3
20260505034056 15 204 0.0 3.2 0.00 0.00 0.00 77 1013.2
20260505034051 16 205 0.0 4.8 0.00 0.00 0.00 77 1013.1
20260505033043 16 202 1.6 8.0 0.00 0.00 0.00 77 1013.1
20260505032536 16 256 1.6 8.0 0.00 0.00 0.00 76 1013.1
20260505032031 16 224 1.6 4.8 0.00 0.00 0.00 76 1013.0
20260505031528 17 233 1.6 4.8 0.00 0.00 0.00 75 1013.0
20260505031019 17 209 1.6 4.8 0.00 0.00 0.00 74 1012.8
20260505030514 17 228 1.6 4.8 0.00 0.00 0.00 74 1012.6
20260505030007 17 204 1.6 4.8 0.00 0.00 0.00 73 1012.5
20260505030002 17 202 1.6 6.4 0.00 0.00 0.00 73 1012.3
20260505024955 18 241 1.6 6.4 0.00 0.00 0.00 72 1012.3
20260505024449 18 208 1.6 6.4 0.00 0.00 0.00 72 1012.3
20260505023943 18 231 1.6 6.4 0.00 0.00 0.00 72 1012.3
20260505023437 18 242 1.6 9.7 0.00 0.00 0.00 71 1012.2
20260505022931 18 202 3.2 9.7 0.00 0.00 0.00 70 1012.2
20260505022427 19 275 3.2 8.0 0.00 0.00 0.00 69 1012.1
20260505022421 19 214 1.6 6.4 0.00 0.00 0.00 70 1012.2
20260505021413 20 215 1.6 6.4 0.00 0.00 0.00 69 1012.1
20260505020912 20 211 3.2 8.0 0.00 0.00 0.00 69 1012.2
20260505020412 20 219 1.6 8.0 0.00 0.00 0.00 68 1012.1
20260505015912 20 197 1.6 9.7 0.00 0.00 0.00 68 1012.1
20260505015413 20 215 3.2 9.7 0.00 0.00 0.00 67 1012.1
20260505014912 21 156 3.2 8.0 0.00 0.00 0.00 67 1012.1
20260505014419 21 209 3.2 11.3 0.00 0.00 0.00 66 1012.2
20260505014415 21 226 3.2 8.0 0.00 0.00 0.00 66 1012.1
20260505013912 21 187 3.2 11.3 0.00 0.00 0.00 66 1012.1
20260505012912 22 229 3.2 6.4 0.00 0.00 0.00 66 1012.2
20260505012414 22 204 3.2 8.0 0.00 0.00 0.00 66 1012.3
20260505011912 22 197 3.2 8.0 0.00 0.00 0.00 66 1012.3
20260505011412 22 219 3.2 8.0 0.00 0.00 0.00 66 1012.4
20260505010911 22 202 1.6 8.0 0.00 0.00 0.00 65 1012.5
20260505010412 22 218 3.2 8.0 0.00 0.00 0.00 65 1012.3
20260505005910 22 196 3.2 8.0 0.00 0.00 0.00 65 1012.3
20260505005410 22 238 1.6 4.8 0.00 0.00 0.00 65 1012.4
20260505004908 22 271 1.6 4.8 0.00 0.00 0.00 66 1012.5
20260505004406 22 187 1.6 4.8 0.00 0.00 0.00 65 1012.5
20260505003906 22 138 1.6 4.8 0.00 0.00 0.00 65 1012.4
20260505003405 22 209 1.6 6.4 0.00 0.00 0.00 65 1012.4
20260505002906 23 221 1.6 6.4 0.00 0.00 0.00 64 1012.4
20260505002405 23 169 1.6 3.2 0.00 0.00 0.00 65 1012.4
20260505001906 22 164 1.6 6.4 0.00 0.00 0.00 68 1012.4
20260505001405 22 164 1.6 6.4 0.00 0.00 0.00 67 1012.4
20260505000915 22 154 1.6 8.0 0.00 0.00 0.00 64 1012.5
20260505000908 22 197 1.6 6.4 0.00 0.00 0.00 67 1012.4
20260504235905 22 161 1.6 8.0 0.00 0.00 0.00 66 1012.6
20260504235401 22 194 1.6 6.4 0.00 0.00 0.00 66 1012.6
20260504234902 22 169 1.6 4.8 0.00 0.00 0.00 65 1012.6
20260504234412 22 154 1.6 8.0 0.00 0.00 0.00 68 1012.8
20260504234401 22 209 1.6 4.8 0.00 0.00 0.00 64 1012.7
20260504233902 22 204 1.6 6.4 0.00 0.00 0.00 65 1012.7
20260504232904 22 150 1.6 8.0 0.00 0.00 0.00 66 1012.8
20260504232405 22 238 1.6 11.3 0.00 0.00 0.00 67 1013.0
20260504231905 22 119 3.2 11.3 0.00 0.00 0.00 66 1013.1
20260504231401 22 149 1.6 9.7 0.00 0.00 0.00 66 1013.0
20260504230852 21 128 3.2 9.7 0.00 0.00 0.00 66 1013.0
20260504230346 21 124 3.2 8.0 0.00 0.00 0.00 68 1013.2
20260504225843 21 132 3.2 8.0 0.00 0.00 0.00 69 1013.1
20260504225836 21 138 3.2 11.3 0.00 0.00 0.00 68 1013.3
20260504224827 21 123 3.2 11.3 0.00 0.00 0.00 69 1013.3
20260504224321 21 121 3.2 11.3 0.00 0.00 0.00 69 1013.4
20260504223816 21 124 3.2 6.4 0.00 0.00 0.00 68 1013.5
20260504223309 21 150 3.2 11.3 0.00 0.00 0.00 70 1013.5
20260504222804 21 130 3.2 11.3 0.00 0.00 0.00 69 1013.5
20260504222257 21 132 3.2 11.3 0.00 0.00 0.00 69 1013.6
20260504221752 21 131 1.6 11.3 0.00 0.00 0.00 67 1013.7
20260504221245 21 132 1.6 6.4 0.00 0.00 0.00 69 1013.6
20260504220739 21 132 3.2 8.0 0.00 0.00 0.00 68 1013.8
20260504220237 21 119 3.2 11.3 0.00 0.00 0.00 67 1013.8
20260504220230 21 130 3.2 11.3 0.00 0.00 0.00 67 1013.9
20260504215221 21 157 1.6 6.4 0.00 0.00 0.00 70 1014.0
20260504214717 20 221 3.2 8.0 0.00 0.00 0.00 69 1014.0
20260504214211 20 132 3.2 8.0 0.00 0.00 0.00 68 1014.1
20260504213704 20 135 3.2 8.0 0.00 0.00 0.00 70 1014.1
20260504213202 20 128 3.2 6.4 0.00 0.00 0.00 71 1014.2
20260504213155 20 126 3.2 6.4 0.00 0.00 0.00 69 1014.2
20260504212146 20 135 3.2 8.0 0.00 0.00 0.00 70 1014.2
20260504211640 20 139 3.2 8.0 0.00 0.00 0.00 70 1014.3
20260504211134 20 148 1.6 6.4 0.00 0.00 0.00 70 1014.6
20260504210627 20 137 1.6 6.4 0.00 0.00 0.00 71 1014.6
20260504210124 19 136 3.2 12.9 0.00 0.00 0.00 71 1014.6
20260504205615 19 139 3.2 12.9 0.00 0.00 0.00 71 1014.8
20260504205109 19 159 1.6 8.0 0.00 0.00 0.00 72 1014.7
20260504204604 18 150 3.2 11.3 0.00 0.00 0.00 73 1014.7
20260504204058 18 134 3.2 11.3 0.00 0.00 0.00 74 1014.8
20260504203554 18 149 3.2 6.4 0.00 0.00 0.00 75 1014.9
20260504203045 18 129 3.2 8.0 0.00 0.00 0.00 73 1014.9
20260504202540 18 132 3.2 8.0 0.00 0.00 0.00 72 1014.9
20260504202033 18 127 1.6 6.4 0.00 0.00 0.00 73 1014.9
20260504201528 18 140 1.6 4.8 0.00 0.00 0.00 75 1014.8
20260504201021 17 145 3.2 6.4 0.00 0.00 0.00 76 1014.8
20260504200516 17 140 1.6 8.0 0.00 0.00 0.00 74 1014.9
20260504200010 17 140 1.6 8.0 0.00 0.00 0.00 74 1014.9
20260504200002 17 190 1.6 6.4 0.00 0.00 0.00 78 1014.9
20260504195838 17 136 1.6 8.0 0.00 0.00 0.00 76 1014.9
20260504194452 16 117 1.6 6.4 0.00 0.00 0.00 78 1014.8
20260504193950 16 140 3.2 9.7 0.00 0.00 0.00 78 1014.8
20260504193946 16 145 3.2 8.0 0.00 0.00 0.00 78 1014.8
20260504192933 16 134 3.2 9.7 0.00 0.00 0.00 77 1014.8
20260504192427 16 171 1.6 6.4 0.00 0.00 0.00 78 1014.9
20260504191922 16 138 1.6 9.7 0.00 0.00 0.00 78 1015.0
20260504191423 15 238 1.6 9.7 0.00 0.00 0.00 81 1015.0
20260504190921 15 132 3.2 11.3 0.00 0.00 0.00 80 1015.1
20260504190422 15 109 3.2 11.3 0.00 0.00 0.00 80 1015.1
20260504185921 15 165 1.6 6.4 0.00 0.00 0.00 81 1015.1
20260504185420 15 146 1.6 6.4 0.00 0.00 0.00 81 1015.2
20260504184921 15 217 1.6 9.7 0.00 0.00 0.00 81 1015.2
20260504184421 15 140 1.6 9.7 0.00 0.00 0.00 81 1015.2
20260504183921 15 167 1.6 6.4 0.00 0.00 0.00 81 1015.1
20260504183419 15 156 1.6 6.4 0.00 0.00 0.00 82 1015.2
20260504182922 15 254 1.6 6.4 0.00 0.00 0.00 82 1015.1
20260504182419 15 146 1.6 4.8 0.00 0.00 0.00 82 1015.1
20260504181918 14 331 1.6 8.0 0.00 0.00 0.00 83 1015.1
20260504181419 14 131 3.2 8.0 0.00 0.00 0.00 82 1015.0
20260504180916 13 218 3.2 8.0 0.00 0.00 0.00 82 1015.0
20260504180415 14 119 3.2 8.0 0.00 0.00 0.00 82 1015.0
20260504175916 14 147 1.6 8.0 0.00 0.00 0.00 82 1015.0
20260504175409 14 159 1.6 6.4 0.00 0.00 0.00 83 1015.0
20260504174905 14 143 3.2 8.0 0.00 0.00 0.00 82 1015.0
20260504174400 14 125 1.6 8.0 0.00 0.00 0.00 82 1014.9
20260504173852 14 142 1.6 4.8 0.00 0.00 0.00 83 1015.0
20260504173726 13 153 1.6 8.0 0.00 0.00 0.00 84 1014.9
20260504173617 13 197 1.6 4.8 0.00 0.00 0.00 83 1014.9
20260504172345 13 142 4.8 11.3 0.00 0.00 0.00 84 1014.9
20260504171847 13 123 1.6 4.8 0.00 0.00 0.00 84 1015.0
20260504171843 13 137 3.2 11.3 0.00 0.00 0.00 83 1014.9